Regional Weather Roundup
Issued by NWS Sterling, VA

Home | Current Version | Previous Version | Graphics & Text | Print | Product List | Glossary On
Versions: 1 2 3 4 5 6 7 8 9 10 11 12 13 14 15 16 17 18 19 20 21 22 23 24 25 26 27 28
000
ASUS41 KLWX 152111
RWRLWX

REGIONAL WEATHER ROUNDUP
NATIONAL WEATHER SERVICE BALTIMORE MD/WASHINGTON DC
500 PM EDT SUN OCT 15 2017

Note: "FAIR" indicates few or no clouds below 12,000 feet
with no significant weather and/or obstructions to visibility.
 TC=TEMPERATURE CELSIUS

 * =Non NWS site. Station does not report precipitation (e.g. rain,
    snow, etc.), thunder, or fog.

DCZ001-MDZ009-015-VAZ040>042-051-053>054-152200-
WASHINGTON METRO

CITY           SKY/WX    TMP DP  RH WIND       PRES   REMARKS
WASHINGTON NAT MOSUNNY   78  67  68 S13       29.90F
DULLES         MOSUNNY   79  66  64 S14       29.89F
ANDREWS AFB    SUNNY     77  65  67 S10       29.90F
FT BELVOIR     SUNNY     79  66  64 S5        29.90F
QUANTICO       SUNNY     79  68  69 SW8       29.91F
COLLEGE PARK*  SUNNY     76  64  67 S9        29.90F
LEESBURG*      SUNNY     81  68  65 S8        29.90F
MANASSAS*      SUNNY     80  65  59 S10       29.90F
GAITHERSBURG*  SUNNY     76  66  71 S10       29.91F

$$

MDZ006>007-011-014-152200-
BALTIMORE METRO

CITY           SKY/WX    TMP DP  RH WIND       PRES   REMARKS
BWI AIRPORT    MOSUNNY   76  66  71 S9        29.89F
MD SCIENCE CTR   N/A     76  65  68 MISG      29.90F
ANNAPOLIS      SUNNY     78  69  73 S8        29.90F
FORT MEADE*    SUNNY     73  64  73 SW9       29.93F

$$

MDZ012-015-019>023-152200-
MARYLAND EASTERN SHORE

CITY           SKY/WX    TMP DP  RH WIND       PRES   REMARKS
OCEAN CITY     MOSUNNY   72  68  87 SW12      29.97S
SALISBURY      MOSUNNY   73  67  81 SW13      29.96S
CAMBRIDGE*     MOSUNNY   75  68  78 S9G15     29.94F
EASTON*        MOSUNNY   75  66  73 S9        29.97F

$$

MDZ017>025-152200-
SOUTHERN MARYLAND

CITY           SKY/WX    TMP DP  RH WIND       PRES   REMARKS
PATUXENT RIVER MOSUNNY   79  67  66 SW6       29.92F
ST INIGOES     SUNNY     80  67  64 S9        29.92F
LEONARDTOWN*   NOT AVBL

$$

MDZ003>005-152200-
NORTH CENTRAL MARYLAND

CITY           SKY/WX    TMP DP  RH WIND       PRES   REMARKS
FREDERICK*     SUNNY     81  63  54 SW10G16   29.91F
HAGERSTOWN APT SUNNY     79  64  60 S14       29.86F
WESTMINSTER*   SUNNY     79  66  65 S9        29.90F

$$

MDZ501>502-152200-
WESTERN MARYLAND

CITY           SKY/WX    TMP DP  RH WIND       PRES   REMARKS
OAKLAND*       CLOUDY    68  55  64 SW12G20   29.94F
CUMBERLAND*    SUNNY     84  55  37 SW14G24   29.89F

$$

VAZ025>031-152200-
SHENANDOAH VALLEY

CITY           SKY/WX    TMP DP  RH WIND       PRES   REMARKS
WINCHESTER*    PTSUNNY   79  63  57 S10       29.88S
FRONT ROYAL*   SUNNY     82  64  54 S6        29.87F
LURAY*         SUNNY     82  61  47 S13G21    29.89F
NEW MARKET*    MOSUNNY   83  59  42 SW8G21    29.88S
STAUNTON*      SUNNY     82  58  43 SW13G18   29.95F
WAYNESBORO*    MOSUNNY   80  62  55 SW10G23   29.97S

$$

WVZ021-048>050-054>055-152200-
EASTERN WEST VIRGINIA PANHANDLE

CITY           SKY/WX    TMP DP  RH WIND       PRES   REMARKS
MARTINSBURG    SUNNY     78  64  61 S9        29.85F
PETERSBURG*    SUNNY     83  57  40 W5        29.88F

$$

VAZ036>039-050-152200-
CENTRAL FOOTHILLS

CITY           SKY/WX    TMP DP  RH WIND       PRES   REMARKS
CHARLOTTESVILL SUNNY     80  65  59 SW10G17   29.93F
CULPEPER*      SUNNY     81  63  53 S10       29.91F
ORANGE*        SUNNY     77  63  61 SW10      29.92F
GORDONSVILLE*  SUNNY     79  66  65 SW13      29.92F
WARRENTON*     SUNNY     81  61  49 SW10      29.90F

$$

VAZ055>057-152200-
NORTH AND CENTRAL PIEDMONT

CITY           SKY/WX    TMP DP  RH WIND       PRES   REMARKS
FREDERICKSBRG* SUNNY     81  64  57 SW14G21   29.91F
STAFFORD*      SUNNY     79  65  60 SW5       29.95F

$$

NCZ024-NYZ072-PAZ021-071-VAZ022-071-152200-
OTHER REGIONAL OBSERVATIONS

CITY           SKY/WX    TMP DP  RH WIND       PRES   REMARKS
NEW YORK CITY  CLOUDY    71  63  75 CALM      29.90F
PHILADELPHIA   CLOUDY    72  63  73 SW13      29.91F
PITTSBURGH     MOSUNNY   74  64  71 SW15G26   29.82F
ROANOKE        MOSUNNY   80  58  46 W10       30.00F
RICHMOND       SUNNY     81  64  56 SW13      29.95F
RALEIGH        MOSUNNY   82  66  58 SW17      30.03F

$$

ANZ530>537-152200-
MARINE OBSERVATIONS

STATION/POSITION TIME  TEMP    WIND        PRES
                       AIR SEA DIR/SP/G
                 (UTC) (F)     (DEG/KT/KT) (MB)
THOMAS PT LIGHT  2100   72 71  180/ 12/ 13   N/A
BALT KEY BRIDGE  2036   74     180/  7/  8 1012.5F
COVE POINT       2036   77     220/ 11/ 13 1014.0F
LEWISETTA        2036   78 71  220/ 15/ 20 1013.5F
SOLOMONS ISLAND  2036   77 72  220/ 12/ 16 1013.0F
PINEY POINT      2048          230/ 11/ 12   N/A

$$





USA.gov is the U.S. government's official web portal to all federal, state and local government web resources and services.